{"data":{"norad_id":47509,"epoch":"2026-05-25T02:41:43.996128Z","epoch_age_seconds":68548,"freshness":"FRESH","line1":"1 47509U 21006DA  26145.11231477  .00005542  00000+0  15294-3 0  9997","line2":"2 47509  97.2168 192.7713 0003548 238.1639 121.9261 15.37482637296300","mean_motion":15.37482637,"eccentricity":0.0003548,"inclination_deg":97.2168,"raan_deg":192.7713,"arg_perigee_deg":238.1639,"mean_anomaly_deg":121.9261,"bstar":0.00015294,"rev_number":29630,"period_min":93.659594283926,"perigee_km":451.1324205442,"apogee_km":455.98019011366,"semimajor_km":6831.6933053289,"source":"CELESTRAK","updated_at":"2026-05-25T13:37:56.474495Z"}}